GAOFEN 6

导读

高分六号(GAOFEN 6)是中国于2018年6月2日发射的国产光学遥感卫星,隶属于中国高分辨率对地观测系统,配置多光谱与宽幅成像能力,具备高分辨率、大视场的观测优势,主要服务于农业、林业、防灾减灾、环境保护等领域,为国土资源调查、生态环境监测等提供精准的对地观测数据支撑。

基本信息
目录编号:
43484
目录名称:
GAOFEN 6
国际标识:
2018-048A
轨道中心:
EARTH
卫星名称:
GAOFEN 6
卫星全名:
--
卫星状态:
在轨 (已飞行3023 天)
发射日期:
2018-06-02 UTC
国别 :
中国 (CN)
星等 :
--
轨道信息
数据来源 国际轨道数据
星历时间: 2026-09-11T01:39:04+0800
8小时前
查看轨道信息
半长轴: 7018.733km
偏心率: 0.0009284
轨道倾角: 98.090°
近地点辐角 254.929°
升交点赤经 316.551°
平近点角 105.089°
近地点: 634.079km
远地点: 647.113km
周期: 97.532分钟
每日圈数: 14.764364
详细信息
使用方式:
暂无
2D轨道图
3D轨道图
轨道高度分析图
轨道倾角分析图
轨道综合分析图
查看轨道综合分析图
与全量物体交会距离演化趋势
与全量物体交会风险概率演化趋势